Location: Poughquag
(41.6090°N, 73.6820°W)
Time: 12:14:20
(UTC-04:00)

Transit 4A - Pass Details

Date: 05 June 2020
Orbit: 866 x 978 km, 66.8° (Epoch: 06 July)

Event Time Altitude Azimuth Distance (km) Brightness Sun altitude
Rises 11:18:46 0° 319° (NW) 3,590 10.7 62.6°
Reaches altitude 10° 11:21:37 10° 308° (NW) 2,660 10.1 63.0°
Maximum altitude 11:26:45 28° 252° (WSW) 1,713 9.5 63.8°
Drops below altitude 10° 11:31:58 10° 196° (SSW) 2,699 10.6 64.5°
Sets 11:34:53 0° 185° (S) 3,651 11.2 64.9°
